Tracking 17857 objects as of 29-September-2016
HD Live streaming from Space Station
objects crossing your sky now

ARIANE 44L R/B

Track ARIANE 44L R/B now!


NORAD ID: 26696
Int'l Code: 2001-005C
Perigee: 299.6 km
Apogee: 32,307.6 km
Inclination: 7.2 °
Period: 566.3 minutes
Semi major axis: 22674 km
RCS: 23.3181 m2 (large)
Launch date: February 7, 2001
Source: France (FR)
Launch site: FRENCH GUIANA (FRGUI)

Note: This is a ROCKET BODY
Your satellite tracking list
Your tracking list is empty





NASA's NSSDC Master Catalog

Two Line Element Set (TLE):
1 26696U 01005C   16272.40566879  .00003285  00000-0  19714-2 0  9990
2 26696   7.2374 339.1364 7058128  24.6173 356.8971  2.54269202136604
Source of the keplerian elements: AFSPC

N2YO: 552